Location: Pella
(41.4080°N, 92.9160°W)
Time: 20:20:51
(UTC-05:00)

Iridium 91 - Visible Passes

Search period start: 24 May 2015 00:00
Search period end: 03 June 2015 00:00
Orbit: 776 x 779 km, 86.4° (Epoch: 24 May)

Date Brightness Start Highest point End Pass type
(mag) Time Alt. Az. Time Alt. Az. Time Alt. Az.
24 May 5.5 01:28:44 80° NNE 01:28:44 80° NNE 01:33:44 10° N visible
24 May 7.8 03:09:12 11° W 03:10:05 11° WNW 03:11:19 10° NW visible
25 May 6.1 00:55:15 46° E 00:55:15 46° E 01:00:01 10° NNE visible
25 May 7.2 02:35:43 20° W 02:36:05 20° WNW 02:39:50 10° NNW visible
26 May 6.9 00:21:46 26° E 00:21:46 26° E 00:25:57 10° NNE visible
26 May 6.4 02:02:13 36° W 02:02:15 36° W 02:07:02 10° NNW visible
26 May 7.6 23:48:16 14° E 23:48:24 14° E 23:51:11 10° NE visible
27 May 5.6 01:28:43 66° WNW 01:28:43 66° WNW 01:33:49 10° N visible
28 May 5.6 00:55:13 67° E 00:55:13 67° E 01:00:17 10° N visible
28 May 7.6 02:35:41 14° W 02:36:28 14° WNW 02:39:04 10° NW visible
29 May 6.4 00:21:42 36° E 00:21:42 36° E 00:26:26 10° NNE visible
29 May 6.9 02:02:10 25° W 02:02:32 25° WNW 02:06:47 10° NNW visible
29 May 7.2 23:48:11 20° E 23:48:20 20° E 23:52:10 10° NE visible
30 May 6.1 01:28:39 46° W 01:28:46 46° W 01:33:47 10° N visible
30 May 7.7 23:14:40 11° E 23:15:06 11° ENE 23:16:32 10° ENE visible
31 May 5.4 00:55:07 84° WSW 00:55:10 85° W 01:00:25 10° N visible
01 Jun 5.8 00:21:36 52° E 00:21:42 53° E 00:26:46 10° NNE visible
01 Jun 7.4 02:02:03 18° W 02:02:52 18° WNW 02:06:17 10° NNW visible
01 Jun 6.7 23:48:03 29° E 23:48:19 29° E 23:52:47 10° NNE visible
02 Jun 6.6 01:28:31 31° W 01:29:00 32° W 01:33:37 10° NNW visible
02 Jun 7.4 23:14:30 16° E 23:15:01 16° E 23:18:14 10° NE visible
